User: anonymous   Login
Location: Unspecified
(0.0000°N, 0.0000°E)
Time: 10:44:03
(UTC+00:00)
Language:

Vanguard 2 - Orbit

View from above orbital plane
View from above orbital plane
View from above satellite
View from above satellite

Ground track
Ground track

The orbit data is extracted from the following two-line orbital elements,

1 00011U 59001A   18174.67919702 -.00000047  00000-0 -25456-4 0  9998
2 00011  32.8659 256.1990 1467922 120.3748 255.0112 11.85534713530681
Epoch (UTC): 23 June 2018 16:18:02
Eccentricity: 0.1467922
inclination: 32.8659°
perigee height: 553 km
apogee height: 2939 km
right ascension of ascending node: 256.1990°
argument of perigee: 120.3748°
revolutions per day: 11.85534713
mean anomaly at epoch: 255.0112°
orbit number at epoch: 53068

The dashed part of the orbit path shows where the satellite is in the earth's shadow,  

DLR